Retour au catalogue

STARLINK-32525

ActifCommunicationsVLEO
NORAD 62121·PAYLOAD·🇺🇸 United States

Lancé Nov 27, 2024 depuis Cape Canaveral Space Force Station

Loading…

Prochains Passages (prochaines 24 heures)

TLE

FraisSource: CelesTrak SupGP

Époque: Sep 14, 2026, 22:58 UTC

1 62121C 24222H   26257.95743056 -.00111700  00000+0 -40458-2 0  2576
2 62121  42.9997 147.0245 0001285 272.5507 253.1670 15.27634651    16

Suivez STARLINK-32525 en temps réel avec AllMySat

Download on the App Store